Regional Weather Roundup
Issued by NWS

Home | Current Version | Previous Version | Graphics & Text | Print | Product List | Glossary On
Versions: 1 2 3 4 5 6 7 8 9 10 11 12 13 14 15 16 17 18 19 20 21 22 23 24 25 26 27 28 29 30 31 32 33 34 35 36 37 38 39 40 41 42 43 44 45 46 47 48 49 50
000
ASUS43 KLOT 301003
RWRIL

ILLINOIS REGIONAL WEATHER ROUNDUP
NATIONAL WEATHER SERVICE CHICAGO/ROMEOVILLE IL
500 AM CDT THU MAR 30 2017

NOTE: "FAIR" INDICATES FEW OR NO CLOUDS BELOW 12,000 FEET WITH NO
SIGNIFICANT WEATHER AND/OR OBSTRUCTIONS TO VISIBILITY.

* THESE STATIONS ARE NOT UNDER NWS QUALITY CONTROL. THEY ALSO MAY NOT
  REPORT WEATHER SUCH AS PRECIPITATION OR FOG.

ILZ001-002-007-009-015-016-024-301100-
NORTHWEST ILLINOIS

CITY           SKY/WX    TMP DP  RH WIND       PRES   REMARKS
MOLINE         CLOUDY    44  41  89 E21G26    29.72F
SAVANNA*       RAIN      41  40  94 E16G25    29.78F
$$

ILZ003-004-008-010-011-017-018-301100-
NORTH CENTRAL ILLINOIS

CITY           SKY/WX    TMP DP  RH WIND       PRES   REMARKS
ROCKFORD       LGT RAIN  41  38  89 E13G20    29.84F
FREEPORT*      LGT RAIN  39  38  97 E17       29.85F WCI  30
ROCHELLE*      LGT RAIN  41  40  96 E13G21    29.81F
DE KALB*       LGT RAIN  41  40  96 E17G25    29.83F
PERU*          CLOUDY    43  40  90 E20       29.77F
$$

ILZ005-006-012>014-019>023-301100-
NORTHEAST ILLINOIS

CITY           SKY/WX    TMP DP  RH WIND       PRES   REMARKS
CHICAGO-OHARE  RAIN      42  39  89 E13       29.87S FOG
CHICAGO-MIDWAY TSTM      43  41  93 E24G36    29.87R FOG
AURORA         RAIN      43  41  93 E20G28    29.82F FOG
LANSING*       LGT RAIN  42  41  97 E17G26    29.84F
JOLIET*        LGT RAIN  45  42  91 E18G24    29.83F
WAUKEGAN       LGT RAIN  38  38 100 E16       29.91F FOG     WCI  29
DUPAGE AIRPORT HVY RAIN  42  42 100 E14       29.85S FOG
KANKAKEE*      TSTM      44  42  92 E12       29.82S
WHEELING       RAIN      39  39 100 E10       29.89F FOG     WCI  32
MORRIS*        CLOUDY    45  41  86 E16G24    29.81S
NORTHERLY ISL    N/A     40  39  97 E5          N/A
$$

LMZ740>746-301100-
SOUTHERN LAKE MICHIGAN

STATION/POSITION SKY/WX   TEMP    WIND        PRES    VSBY  WAVE
                          AIR SEA DIR/SP/G                  HT/PER
                          (F)     (DEG/KT/KT) (MB)    (MI)  (FT/S)
HARRISON CRIB              40      90/ 19/ 21   N/A
BURNHAM HARBOR             41      80/ 19       N/A
CALUMET HARBOR             41      80/ 20/ 29 1010.9F
BURNS HARBOR               42      90/ 14/ 21 1011.9F
MICHIGAN CITY              41      70/ 20/ 22   N/A
$$

ILZ025>027-034>036-040-047-049-050-058-095>099-301100-
WEST-CENTRAL ILLINOIS

CITY           SKY/WX    TMP DP  RH WIND       PRES   REMARKS
QUINCY         TSTM      52  51  97 NE13      29.60S FOG
GALESBURG*     CLOUDY    44  42  93 E17G25    29.67F
MACOMB*        LGT RAIN  46  44  96 E20       29.68F
JACKSONVILLE*  CLOUDY    55  53  95 E9        29.63S
$$

ILZ028>032-037-038-041>044-048-051>054-059>061-301100-
CENTRAL ILLINOIS

CITY           SKY/WX    TMP DP  RH WIND       PRES   REMARKS
PONTIAC        LGT SNOW  45  44  99 E18       29.77F
BLOOMINGTON    LGT RAIN  45  44  97 E16G25    29.73F FOG
DECATUR        CLOUDY    52  49  89 E16       29.70F
PEORIA         LGT RAIN  45  43  93 E18G25    29.71F
LACON*         CLOUDY    44  42  92 E16G23    29.74F
LINCOLN*       CLOUDY    52  52  97 E15G23    29.66F
SPRINGFIELD    CLOUDY    54  53  97 E10       29.65F
TAYLORVILLE    NOT AVBL
$$

ILZ033-039-045-046-055>057-062-063-301100-
EAST-CENTRAL ILLINOIS

CITY           SKY/WX    TMP DP  RH WIND       PRES   REMARKS
CHAMPAIGN      LGT RAIN  50  48  93 N17       29.77R FOG
RANTOUL*       LGT RAIN  49  47  93 NW10      29.81R
MATTOON        RAIN      55  54  96 S15       29.73R FOG
PARIS*         LGT RAIN  53  49  88 SE10      29.75R
$$

ILZ079-100>102-301100-
SOUTHWEST ILLINOIS

CITY           SKY/WX    TMP DP  RH WIND       PRES   REMARKS
ALTON          CLOUDY    57  55  94 CALM      29.61F
BELLEVILLE     PTCLDY    59  59 100 SE3       29.61S
CAHOKIA*       MOCLDY    62  57  83 S5        29.60F
SPARTA*        CLOUDY    62  58  88 SE6       29.64F
$$

ILZ064>066-069>071-074>076-080>082-084>086-088>090-092>094-301100-
SOUTH-CENTRAL ILLINOIS

CITY           SKY/WX    TMP DP  RH WIND       PRES   REMARKS
CARBONDALE     CLOUDY    62  61  96 S7        29.65F
CAIRO*         CLOUDY    66  59  78 SE8       29.69S
EFFINGHAM*     LGT RAIN  57  57 100 E12       29.70F
MARION         CLOUDY    66  63  88 S8        29.67S
MT. VERNON     CLOUDY    60  57  89 E5        29.66F
CENTRALIA*     CLOUDY    61  60  96 CALM      29.65F
SALEM*         CLOUDY    61  58  92 E6        29.66F
METROPOLIS*    CLOUDY    70  57  64 S8        29.71S
$$

ILZ067-068-072-073-078-083-087-091-301100-
SOUTHEAST ILLINOIS

CITY           SKY/WX    TMP DP  RH WIND       PRES   REMARKS
LAWRENCEVILLE  CLOUDY    57  52  83 E9        29.71F
FLORA*         CLOUDY    59  57  92 E7        29.69F
FAIRFIELD*     CLOUDY    57  57  98 NE5       29.67F
HARRISBURG*    CLOUDY    62  58  86 SE8       29.69S
ROBINSON*      CLOUDY    56  50  81 SE7       29.73F
CARMI*         CLOUDY    60  56  89 S5        29.70S
$$

ABBREVIATIONS USED IN REMARKS
   TC - TEMPERATURE IN CELSIUS
  WCI - WIND CHILL INDEX
   HX - HEAT INDEX
  VSB - VISIBILITY
$$




USA.gov is the U.S. government's official web portal to all federal, state and local government web resources and services.